Orbital Elements at Epoch 2457096.5 (2015-Mar-15.0) TDB
Reference: JPL 17 (heliocentric ecliptic J2000)
Element | Value | Uncertainty (1-sigma) | Units |
e | .679446009386709 | 8.8071e-07 | |
a | 7.120516042386837 | 8.7647e-08 | au |
q | 2.282509832613058 | 6.2543e-06 | au |
i | 28.46501817793593 | 8.7419e-05 | deg |
node | 174.1107500515312 | 6.2218e-05 | deg |
peri | 172.5640067929247 | 0.000918 | deg |
M | 273.8924065834887 | 0.00011617 | deg |
tp | 2458756.486596827081 (2019-Sep-29.98659683) | 0.0022567 | TDB |
period | 6940.09844134326 19.00 | 0.00012814 3.508e-07 | d yr |
n | .05187246305548395 | 9.5776e-10 | deg/d |
Q | 11.95852225216061 | 1.472e-07 | au |
|
| | Orbit Determination Parameters
Additional Information
|